[[{"header":{"parameterUnit":"m.s-1","parameterCategory":1,"la1":30.2991,"la2":30.254,"lo1":-89.0895,"lo2":-89.0444,"dy":0.0017,"dx":0.0017,"nx":28,"ny":28,"refTime":"2024-11-25T09:00:00:Z","depth":0,"parameterNumber":2,"parameterNumberName":"U-component_of_WINDS"},"data":[0,0,0,0,0,0,0,0,0,0,0,0,0,0,0,0,0,0,0,0,0,0,0,0,0,0,0,0,0,0,0,0,0,0,0,0,0,0,0,0,0,0,0,0,0,0,0,0,0,0,0,0,0,0,0,0,0,0,-2.7356,-2.7357,0,-2.7425,-2.7426,-2.7427,-2.7412,-2.7411,-2.741,-2.7409,-2.7476,-2.7478,-2.7481,0,0,0,0,0,0,0,0,0,0,0,0,0,-2.7208,-2.7211,-2.7356,-2.7357,-2.7358,-2.7425,-2.7426,-2.7427,-2.7413,-2.7411,-2.7409,-2.7408,-2.7475,-2.7478,-2.7482,0,0,0,0,0,0,0,0,0,0,0,0,0,-2.7274,-2.7212,-2.7356,-2.7359,-2.736,-2.7425,-2.7426,-2.7427,-2.7413,-2.7411,-2.7409,-2.7407,-2.7473,-2.7478,-2.7482,-2.7548,0,0,-2.7496,-2.7498,0,0,0,0,0,0,0,0,-2.7271,-2.728,-2.7358,-2.7359,-2.736,-2.7408,-2.7399,-2.7468,-2.7413,-2.7393,-2.7409,-2.7406,-2.7454,-2.746,-2.7477,-2.7551,-2.7554,-2.7496,-2.7499,-2.7501,-2.7502,0,0,0,0,0,0,0,-2.7266,-2.7277,-2.7384,-2.7359,-2.736,-2.7356,-2.7363,-2.7412,-2.7433,-2.7394,-2.7393,-2.7402,-2.7455,-2.7473,-2.7479,-2.7555,-2.7496,-2.75,-2.7503,-2.7504,-2.7684,-2.7686,0,0,0,0,0,0,-2.7261,-2.7273,-2.7381,-2.7386,-2.731,-2.736,-2.7368,-2.7395,-2.7433,-2.7437,-2.7404,-2.7401,-2.7466,-2.7474,-2.7481,-2.7559,-2.7501,-2.7505,-2.7507,-2.7682,-2.7685,-2.7687,0,0,0,0,0,0,-2.7258,-2.7271,-2.7379,-2.7329,-2.7343,-2.7364,-2.7395,-2.7397,-2.7415,-2.744,-2.7443,-2.7419,-2.7465,-2.7475,-2.7531,-2.7561,-2.7507,-2.7511,-2.768,-2.7683,-2.7686,-2.7716,0,0,0,0,0,0,-2.7254,-2.727,-2.7296,-2.733,-2.7345,-2.7429,-2.7397,-2.74,-2.7424,-2.7421,-2.7455,-2.7458,-2.7464,-2.7525,-2.7536,-2.7566,-2.7514,-2.7677,-2.7681,-2.7685,-2.7712,-2.772,-2.7726,0,0,0,0,0,-2.7249,-2.7301,-2.7297,-2.731,-2.7378,-2.743,-2.7439,-2.7446,-2.7426,-2.7452,-2.7467,-2.7457,-2.7557,-2.7531,-2.7543,-2.7575,-2.7675,-2.768,-2.7684,-2.7709,-2.7718,-2.7726,0,0,0,0,0,0,-2.7268,-2.7305,-2.7302,-2.7367,-2.7396,-2.7428,-2.746,-2.7456,-2.7489,-2.7485,-2.7492,-2.7499,-2.7556,-2.7572,-2.7542,-2.764,-2.7613,-2.762,-2.7627,-2.7636,-2.7643,-2.7637,-2.7518,0,0,0,0,0,-2.728,-2.7321,-2.7351,-2.7405,-2.742,-2.7438,-2.7461,-2.7464,-2.7493,-2.7505,-2.7525,-2.7553,-2.759,-2.7615,-2.765,-2.7715,-2.7721,-2.7744,-2.7751,-2.7756,-2.7761,-2.7795,-2.7805,-2.7702,-2.7702,-2.7702,0,0,-2.7305,-2.7331,-2.7356,-2.741,-2.7433,-2.7473,-2.7448,-2.7492,-2.7521,-2.7511,-2.7565,-2.7581,-2.7613,-2.7673,-2.7701,-2.7688,-2.7792,-2.7762,-2.7766,-2.7769,-2.7801,-2.7811,-2.7819,-2.7706,-2.7705,-2.7704,0,0,-2.7371,-2.7395,-2.7443,-2.7466,-2.7501,-2.7513,-2.7525,-2.7558,-2.7568,-2.7623,-2.7616,-2.7651,-2.7716,-2.7738,-2.7758,-2.7833,-2.7824,-2.7845,-2.7879,-2.7912,-2.792,-2.7927,-2.7952,-2.7961,-2.7851,-2.7851,-2.7851,0,-2.7397,-2.7458,-2.7467,-2.7512,-2.7535,-2.753,-2.7577,-2.7599,-2.7644,-2.766,-2.7645,-2.7726,-2.7747,-2.7812,-2.783,-2.7848,-2.7859,-2.7839,-2.7919,-2.7926,-2.7933,-2.7956,-2.7966,-2.7853,-2.7853,-2.7852,-2.7852,0,-2.7487,-2.753,-2.7564,-2.7608,-2.7636,-2.7682,-2.7696,-2.7723,-2.7724,-2.7737,-2.7792,-2.7818,-2.7858,-2.7875,-2.7876,-2.794,-2.793,-2.7917,-2.7889,-2.7944,-2.7966,-2.7975,-2.7856,-2.7855,-2.7854,-2.7854,0,0,-2.7564,-2.7614,-2.7626,-2.7646,-2.7685,-2.7718,-2.7763,-2.7804,-2.7825,-2.7857,-2.7893,-2.7949,-2.7937,-2.796,-2.7964,-2.7993,-2.8048,-2.7977,-2.7977,-2.7987,-2.8118,-2.8125,-2.8135,-2.8044,-2.8046,-2.8048,-2.8114,0,-2.7632,-2.7712,-2.7722,-2.7793,-2.7831,-2.7828,-2.7867,-2.7894,-2.7908,-2.7942,-2.7956,-2.7995,-2.7978,-2.7991,-2.802,-2.8036,-2.8074,-2.8031,-2.8076,-2.8077,-2.8065,-2.8147,-2.8155,-2.8217,-2.8123,-2.8125,-2.8126,0,-2.772,-2.7755,-2.783,-2.7863,-2.788,-2.7915,-2.7952,-2.7986,-2.8016,-2.8024,-2.805,-2.805,-2.8095,-2.8068,-2.813,-2.81,-2.8119,-2.813,-2.8132,-2.8134,-2.8103,-2.8149,-2.8237,-2.8245,-2.814,-2.8139,-2.8138,0,-2.7766,-2.7832,-2.7885,-2.7902,-2.7943,-2.7967,-2.7985,-2.8014,-2.8038,-2.8071,-2.8086,-2.8124,-2.8144,-2.8172,-2.8182,-2.8162,-2.8242,-2.8216,-2.8248,-2.8247,-2.8262,-2.8261,-2.8352,-2.828,-2.8279,-2.8279,-2.8279,0,-2.7838,-2.7883,-2.7906,-2.7938,-2.7988,-2.8,-2.8049,-2.8065,-2.8092,-2.8126,-2.8126,-2.8158,-2.817,-2.8204,-2.8212,-2.8261,-2.827,-2.8276,-2.8277,-2.8275,-2.8273,-2.8285,-2.828,-2.8282,-2.8281,-2.8281,-2.828,0,-2.7896,-2.7913,-2.797,-2.8005,-2.8015,-2.805,-2.8079,-2.811,-2.8124,-2.8167,-2.8178,-2.8199,-2.8239,-2.8253,-2.8301,-2.8306,-2.8361,-2.836,-2.8351,-2.835,-2.838,-2.8376,-2.848,-2.8493,-2.8414,-2.8415,-2.8416,0,-2.7939,-2.7974,-2.8013,-2.8037,-2.8056,-2.8094,-2.8119,-2.8131,-2.8156,-2.8194,-2.822,-2.826,-2.8292,-2.8356,-2.8374,-2.8411,-2.8409,-2.8443,-2.8414,-2.841,-2.8406,-2.8403,-2.8405,-2.8447,-2.8448,-2.8448,-2.8449,0,-2.8014,-2.8021,-2.8057,-2.8096,-2.8126,-2.8157,-2.8187,-2.8206,-2.8223,-2.8251,-2.8292,-2.8318,-2.8367,-2.8406,-2.8443,-2.846,-2.8456,-2.8458,-2.8467,-2.8463,-2.8455,-2.8457,-2.8363,-2.8455,-2.8454,-2.8454,-2.8454,-2.8453,-2.8064,-2.8095,-2.8127,-2.8167,-2.8191,-2.8219,-2.8249,-2.8268,-2.8303,-2.8345,-2.835,-2.8394,-2.8423,-2.8473,-2.8492,-2.8526,-2.8516,-2.8529,-2.8532,-2.8535,-2.8536,-2.8453,-2.8533,-2.8533,-2.8533,-2.8533,-2.8533,0,-2.8136,-2.8157,-2.8194,-2.8237,-2.8268,-2.8265,-2.8298,-2.8323,-2.8362,-2.8391,-2.8423,-2.847,-2.8508,-2.853,-2.8568,-2.859,-2.8589,-2.8599,-2.8596,-2.86,-2.8543,-2.8531,-2.8599,-2.8599,-2.8599,-2.8599,-2.8599,-2.8599,-2.8177,-2.8228,-2.8239,-2.8302,-2.8322,-2.8366,-2.8385,-2.841,-2.8433,-2.8486,-2.8518,-2.8533,-2.8559,-2.8598,-2.8632,-2.8638,-2.865,-2.8661,-2.8665,-2.8611,-2.8604,-2.8597,-2.8585,-2.8664,-2.8664,-2.8718,-2.8719,-2.8719]},{"header":{"parameterUnit":"m.s-1","parameterCategory":1,"la1":30.2991,"la2":30.254,"lo1":-89.0895,"lo2":-89.0444,"dy":0.0017,"dx":0.0017,"nx":28,"ny":28,"refTime":"2024-11-25T09:00:00:Z","depth":0,"parameterNumber":3,"parameterNumberName":"V-component_of_WINDS"},"data":[0,0,0,0,0,0,0,0,0,0,0,0,0,0,0,0,0,0,0,0,0,0,0,0,0,0,0,0,0,0,0,0,0,0,0,0,0,0,0,0,0,0,0,0,0,0,0,0,0,0,0,0,0,0,0,0,0,0,3.7064,3.7064,0,3.7084,3.7084,3.7084,3.704,3.7038,3.7037,3.7036,3.7054,3.7055,3.7057,0,0,0,0,0,0,0,0,0,0,0,0,0,3.6985,3.6987,3.7064,3.7064,3.7064,3.7084,3.7084,3.7084,3.704,3.7038,3.7037,3.7035,3.7053,3.7055,3.7057,0,0,0,0,0,0,0,0,0,0,0,0,0,3.7013,3.6987,3.7064,3.7045,3.7043,3.7083,3.7084,3.7084,3.704,3.7038,3.7036,3.7034,3.7052,3.7055,3.7058,3.7117,0,0,3.7066,3.7067,0,0,0,0,0,0,0,0,3.7012,3.7016,3.7047,3.7046,3.7044,3.7057,3.7063,3.7095,3.7041,3.7041,3.7036,3.7033,3.7056,3.7059,3.7067,3.7118,3.7118,3.7066,3.7068,3.7069,3.707,0,0,0,0,0,0,0,3.701,3.7015,3.7071,3.7048,3.7046,3.7034,3.7036,3.7069,3.706,3.7041,3.7038,3.7041,3.7055,3.7064,3.7067,3.7119,3.7066,3.7068,3.707,3.7071,3.7218,3.722,0,0,0,0,0,0,3.7011,3.7014,3.7071,3.7072,3.7023,3.7037,3.7039,3.7055,3.706,3.7059,3.7043,3.7039,3.7061,3.7064,3.7067,3.7136,3.7069,3.7071,3.7073,3.7215,3.7218,3.7221,0,0,0,0,0,0,3.7009,3.7016,3.707,3.7042,3.7048,3.7041,3.7059,3.7057,3.7066,3.7061,3.7059,3.7054,3.7059,3.7064,3.7105,3.7136,3.7073,3.7075,3.7213,3.7216,3.7219,3.7274,0,0,0,0,0,0,3.7007,3.7016,3.7039,3.7043,3.705,3.7108,3.7061,3.7058,3.7071,3.7066,3.7071,3.707,3.7058,3.7101,3.7107,3.7138,3.7077,3.721,3.7214,3.7218,3.7269,3.7278,3.7287,0,0,0,0,0,3.7004,3.7053,3.704,3.7047,3.7078,3.711,3.7113,3.7099,3.7074,3.7096,3.7093,3.707,3.7132,3.7105,3.7112,3.7145,3.7208,3.7213,3.7218,3.7265,3.7277,3.7286,0,0,0,0,0,0,3.7052,3.7053,3.7039,3.7091,3.71,3.7102,3.713,3.7112,3.7129,3.7123,3.7104,3.7106,3.715,3.7152,3.7122,3.7202,3.7165,3.7172,3.7199,3.721,3.7218,3.7216,3.7079,0,0,0,0,0,3.7068,3.7095,3.7094,3.714,3.7145,3.7137,3.715,3.7139,3.7148,3.7151,3.7151,3.716,3.7182,3.7196,3.7216,3.727,3.7269,3.7295,3.7304,3.7311,3.7317,3.7344,3.7355,3.7237,3.7237,3.7237,0,0,3.7102,3.7107,3.7124,3.7149,3.7155,3.7182,3.7141,3.7171,3.7189,3.7155,3.7194,3.7195,3.7203,3.7251,3.7272,3.7254,3.735,3.7318,3.7324,3.7325,3.7351,3.7362,3.7372,3.7241,3.724,3.724,0,0,3.7178,3.7184,3.7222,3.723,3.724,3.7234,3.7244,3.7248,3.7247,3.7286,3.7261,3.7283,3.7321,3.7328,3.7336,3.7415,3.7394,3.7422,3.7467,3.7494,3.7503,3.7511,3.7538,3.7548,3.7428,3.7428,3.7428,0,3.7218,3.7258,3.7244,3.7275,3.7287,3.7258,3.7296,3.7304,3.732,3.7327,3.7307,3.7354,3.7358,3.7406,3.7425,3.7434,3.7442,3.742,3.7504,3.7511,3.7519,3.7544,3.7554,3.7431,3.7431,3.7431,3.743,0,3.7307,3.7335,3.7364,3.7381,3.7395,3.743,3.742,3.7437,3.7424,3.7421,3.746,3.7464,3.7484,3.7495,3.7483,3.7541,3.7529,3.7507,3.7469,3.7533,3.7556,3.7566,3.7436,3.7435,3.7434,3.7433,0,0,3.741,3.742,3.7431,3.7437,3.7447,3.7468,3.7501,3.7521,3.7535,3.7547,3.7573,3.7606,3.7585,3.7595,3.7584,3.7608,3.7668,3.7582,3.7582,3.7596,3.7731,3.7747,3.7758,3.7655,3.7657,3.7658,3.773,0,3.7484,3.7541,3.7529,3.7585,3.761,3.7584,3.7612,3.7621,3.7619,3.7639,3.7636,3.7659,3.763,3.7636,3.7659,3.7656,3.7695,3.7651,3.7678,3.7679,3.7674,3.777,3.7787,3.7854,3.7739,3.774,3.7742,0,3.7576,3.7593,3.7651,3.7656,3.7666,3.7692,3.7709,3.7729,3.7738,3.7735,3.7746,3.773,3.7762,3.7726,3.7769,3.774,3.775,3.775,3.7753,3.7753,3.7712,3.7771,3.7875,3.7885,3.7756,3.7755,3.7754,0,3.7644,3.7681,3.772,3.7727,3.7735,3.7753,3.7757,3.7764,3.7777,3.7792,3.7799,3.7818,3.7827,3.7842,3.7831,3.7806,3.7875,3.7838,3.7871,3.7872,3.7885,3.7884,3.799,3.7896,3.7896,3.7895,3.7895,0,3.7726,3.7762,3.775,3.7774,3.7814,3.7801,3.784,3.7841,3.7847,3.787,3.7849,3.7871,3.7856,3.7877,3.7869,3.7904,3.7909,3.7906,3.7903,3.7907,3.7907,3.7912,3.7906,3.7898,3.7897,3.7897,3.7896,0,3.7807,3.7801,3.7842,3.7846,3.7848,3.7877,3.788,3.7902,3.7899,3.7928,3.7934,3.7928,3.7951,3.7942,3.7967,3.7961,3.8007,3.7999,3.8004,3.8001,3.8034,3.803,3.8145,3.8159,3.8057,3.8058,3.8059,0,3.7859,3.7886,3.7893,3.7908,3.7913,3.7937,3.7949,3.7937,3.7951,3.7964,3.7984,3.8005,3.8021,3.8059,3.8057,3.8075,3.8066,3.8105,3.8068,3.8071,3.8064,3.8062,3.8064,3.8112,3.8113,3.8114,3.8115,0,3.795,3.7946,3.7966,3.7985,3.8001,3.8015,3.8027,3.8039,3.8028,3.8044,3.8068,3.8081,3.8106,3.8127,3.8143,3.8146,3.8128,3.8127,3.8135,3.8138,3.8139,3.8137,3.8021,3.8123,3.8122,3.8122,3.8121,3.8121,3.8017,3.804,3.8048,3.8071,3.8079,3.8091,3.8111,3.8111,3.813,3.815,3.8142,3.8169,3.8176,3.8197,3.8202,3.8223,3.8207,3.822,3.8222,3.8225,3.8229,3.8138,3.8226,3.8226,3.8225,3.8225,3.8225,0,3.8106,3.811,3.8131,3.8149,3.8166,3.815,3.8162,3.8177,3.8201,3.8211,3.8227,3.8254,3.8274,3.8274,3.8292,3.8309,3.8301,3.8314,3.8311,3.8312,3.8242,3.8232,3.832,3.832,3.832,3.832,3.832,3.832,3.8154,3.8191,3.8188,3.8228,3.8232,3.8259,3.8267,3.8278,3.8285,3.8316,3.8333,3.8333,3.8338,3.8357,3.8374,3.8374,3.8381,3.8396,3.8392,3.8327,3.8317,3.8308,3.8299,3.8399,3.8399,3.846,3.8461,3.8461]}]]